Location: Bonn
(50.7330°N, 7.1000°E)
Time: 13:22:36
(UTC+02:00)

Daily predictions for brighter satellites

Satellite Brightness Start Highest point End
(mag) Time Altitude Azimuth Time Altitude Azimuth Time Altitude Azimuth
CZ-4B R/B 3.8 22:24:01 10° NNE 22:29:11 51° E 22:34:15 10° S
Cosmos 2227 Rocket 3.8 22:26:04 10° SE 22:29:31 17° E 22:33:00 10° ENE
Cosmos 1633 Rocket 3.8 22:25:59 10° SSE 22:29:59 36° E 22:33:59 10° NNE
Cosmos 1151 Rocket 4.2 22:26:01 10° NNW 22:30:06 42° W 22:34:10 10° SSW
Cosmos 1680 Rocket 4.4 22:25:54 10° NW 22:30:54 46° WSW 22:35:55 10° S
H-2A R/B 2.9 22:26:23 10° SE 22:31:25 43° ENE 22:36:33 10° N
Cosmos 2058 2.9 22:29:54 10° S 22:33:57 63° E 22:38:02 10° NNE
Cosmos 2333 Rocket 2.6 22:31:29 10° NNW 22:37:11 58° NE 22:42:51 10° SE
Cosmos 1833 4.4 22:32:09 10° SSW 22:37:52 82° WNW 22:43:35 10° NNE
SL-16 R/B 3.6 22:33:05 10° NNW 22:38:05 30° NE 22:43:04 10° ESE
SL-08 RB Rocket 3.8 22:35:03 10° SSE 22:39:30 71° ENE 22:44:01 10° N
NOSS 3-1 (A) 4.0 22:35:49 10° S 22:41:13 37° ESE 22:47:10 10° NE
ATLAS 5 CENTAUR R/B 4.2 22:37:35 10° W 22:42:10 31° NNW 22:47:08 10° NE
SPOT 1/Viking Rocket 3.7 22:38:32 10° SSE 22:43:41 78° WSW 22:48:53 10° NNW
Cosmos 1626 3.9 22:42:36 10° SE 22:45:12 18° E 22:47:48 10° NE
Cosmos 1805 Rocket 3.6 22:40:47 10° S 22:45:14 80° E 22:49:42 10° NNE
Cosmos 1674 4.1 22:41:41 10° SSW 22:45:21 42° WNW 22:49:04 10° N
COSMOS 2428 3.2 22:43:22 10° NW 22:48:55 56° WSW 22:54:27 10° S
Cosmos 1898 Rocket 3.8 22:44:11 10° S 22:49:07 46° ESE 22:54:06 10° NE
Cosmos 1300 3.3 22:49:02 10° NNW 22:52:50 57° W 22:56:35 10° S
Cosmos 1745 Rocket 4.3 22:49:39 10° SSE 22:55:36 49° E 23:01:31 10° NNE
Cosmos 2150 Rocket 4.3 22:50:27 10° S 22:55:45 55° ESE 23:01:05 10° NNE
SeaSat 1 4.0 22:51:50 10° E 22:56:00 28° NE 23:00:10 10° NNW
Cosmos 2297 Rocket 3.6 22:52:38 10° SE 22:56:30 19° E 23:00:23 10° ENE
BREEZE-M DEB (TANK) 2.2 22:56:14 10° W 22:58:08 39° SSW 23:00:38 10° ESE
Cosmos 2219 Rocket 2.2 22:52:35 10° NNW 22:58:13 86° WSW 23:03:42 11° SSE
Cosmos 1707 Rocket 4.2 22:54:35 10° NNW 22:58:52 54° W 23:03:07 10° S
YAOGAN 6 3.8 22:56:12 10° SSW 22:59:37 38° W 23:03:00 10° NNW
ARGOS 3.5 22:55:53 10° S 23:01:16 68° WSW 23:06:40 10° NNW
SPOT 5 4.4 22:58:21 10° SSW 23:02:27 31° W 23:06:47 10° NNW
NOSS 0 Rocket 4.0 22:57:14 10° NNW 23:03:25 86° WSW 23:09:19 11° SSE
ATLAS 2AS CENTAUR R/B 3.9 22:57:52 10° SSE 23:04:04 28° ESE 23:10:36 10° NE
IGS 5A 3.7 23:03:14 12° SSE 23:07:05 60° ENE 23:11:13 10° N
Cosmos 1666 Rocket 3.7 23:03:20 10° SSW 23:07:44 83° W 23:12:14 10° N
Tiangong 1 3.1 23:07:35 10° S 23:08:40 12° S 23:08:40 12° S
Cosmos 220 Rocket 4.4 23:05:51 10° S 23:10:01 44° ESE 23:14:16 10° NE
Cosmos 1455 2.3 23:11:41 10° N 23:15:29 64° ENE 23:18:39 14° SSE
ATLAS 3B R/B 3.0 23:08:26 10° NW 23:15:38 69° NE 23:22:19 10° SE
Cosmos 1980 3.7 23:11:05 10° NNW 23:16:46 85° WSW 23:21:48 13° SSE
CZ-4C R/B 4.1 23:11:54 10° NW 23:17:52 36° NNE 23:24:32 10° E
Cosmos 1470 Rocket 3.7 23:17:11 11° S 23:21:16 58° E 23:25:32 10° NNE
USA 32 4.3 23:16:43 10° N 23:21:58 68° W 23:27:10 10° S
Cosmos 1933 Rocket 3.7 23:18:19 11° S 23:22:32 59° E 23:26:57 10° NNE
USA 238 DEB 4.5 23:17:20 10° NW 23:24:12 50° NNE 23:31:01 10° ESE
USA 238 4.5 23:17:26 10° NW 23:24:18 50° NNE 23:31:06 10° ESE
SAR-Lupe-2 3.5 23:23:27 15° SSE 23:26:22 89° ESE 23:29:59 10° NNW
Cosmos 2219 3.7 23:21:07 10° SW 23:26:51 65° WNW 23:32:36 10° NNE
NOSS 3-1 (C) 3.5 23:21:42 10° SW 23:27:43 82° SE 23:34:31 10° NE
Cosmos 2221 Rocket 4.5 23:24:48 10° N 23:29:07 38° ENE 23:32:29 15° SE
Cosmos 2237 Rocket 2.3 23:23:42 10° NNW 23:29:25 76° WSW 23:34:14 15° SSE
Cosmos 1869 3.3 23:26:32 10° N 23:30:37 78° E 23:33:46 16° SSE
Landsat 7 4.5 23:30:24 10° S 23:35:00 51° W 23:39:40 10° NNW
Cosmos 1726 4.1 23:31:55 10° NNW 23:35:03 25° W 23:38:11 10° SW
Cosmos 2082 4.0 23:32:51 10° S 23:38:22 51° ESE 23:43:53 10° NE
CZ-4C R/B 4.4 23:36:35 10° SSW 23:39:45 33° W 23:42:57 10° NNW
Aureole 2 Rocket 4.2 23:45:06 10° N 23:47:31 21° ENE 23:49:49 11° ESE
Cosmos 1937 Rocket 3.6 23:43:03 10° SSW 23:48:17 83° WNW 23:53:31 10° NNE
Terra 2.4 23:46:46 13° S 23:50:52 51° W 23:55:32 10° NNW
ERBS 3.2 23:52:08 19° S 23:53:55 30° SE 23:57:02 10° ENE
Spot 4 4.2 23:50:01 15° S 23:53:58 60° W 23:58:48 10° NNW
